Location: Arrodets-la-Barthe
(43.0306°N, 0.2829°E)
Time: 00:13:53
(UTC+00:00)

DUCHIFAT 1 - Pass Details

Date: 10 April 2023
Orbit: 567 x 581 km, 98.1° (Epoch: 29 May)

Event Time Altitude Azimuth Distance (km) Brightness Sun altitude
Rises 02:05:21 0° 34° (NE) 2,778 ? -31.8°
Reaches altitude 10° 02:08:34 10° 62° (ENE) 1,872 ? -31.4°
Maximum altitude 02:10:32 13° 91° (E) 1,666 ? -31.2°
Enters shadow 02:10:47 13° 95° (E) 1,669 ? -31.2°
